Location: Wien
(48.2082°N, 16.3738°E)
Time: 18:34:04
(UTC+02:00)

DOVE 4 - Pass Details

Date: 26 March 2019
Orbit: 589 x 801 km, 97.8° (Epoch: 16 October)

Event Time Altitude Azimuth Distance (km) Brightness Sun altitude
Rises 03:20:08 0° 12° (NNE) 2,938 ? -23.7°
Reaches altitude 10° 03:22:23 10° 12° (NNE) 1,999 ? -23.4°
Maximum altitude 03:26:42 86° 285° (WNW) 611 ? -22.8°
Enters shadow 03:27:00 77° 212° (SSW) 624 ? -22.7°
